Location: Brede
(50.9167°N, 0.6000°E)
Time: 03:00:48
(UTC+00:00)

CZ-2D R/B - Pass Details

Date: 08 August 2020
Orbit: 791 x 845 km, 98.7° (Epoch: 27 September)

Event Time Altitude Azimuth Distance (km) Brightness Sun altitude
Rises 03:27:41 0° 6° (N) 3,409 6.1 -9.6°
Reaches altitude 10° 03:30:37 10° 351° (N) 2,475 5.1 -9.2°
Maximum altitude 03:34:29 20° 306° (NW) 1,858 3.9 -8.7°
Drops below altitude 10° 03:38:22 10° 260° (W) 2,470 4.1 -8.3°
Enters shadow 03:39:06 - 255° (WSW) 2,685 4.2 -8.2°
